Weather History for KRND - January, 2014

Change the Weather History Date:

Tuesday, January 7, 2014

  Actual Average Record
Temperature  
Mean Temperature 30 °F -  
Max Temperature 43 °F 60 °F 77 °F (2006)
Min Temperature 17 °F 41 °F 17 °F (2014)
Degree Days  
Heating Degree Days 35    
Moisture  
Dew Point 11 °F    
Average Humidity 42    
Maximum Humidity 76    
Minimum Humidity 18    
Precipitation  
Precipitation 0.00 in - - ()
Sea Level Pressure  
Sea Level Pressure 30.48 in    
Wind  
Wind Speed 4 mph (South)    
Max Wind Speed 10 mph    
Max Gust Speed -    
Visibility 10 miles    
Events      
Averages and records for this station are not official NWS values.
T = Trace of Precipitation, MM = Missing Value Source: NWS Daily Summary

Daily Weather History Graph

Daily Weather History Graph

Search for Another Location

Airport or City:

Trip Planner

Search our weather history database for the weather conditions in past years. The results will help you decide how hot, cold, wet, or windy it might be!

Date:

Astronomy

Jan. 07, 2014 Rise Set
Actual Time 7:28 AM CST 5:50 PM CST
Civil Twilight 7:03 AM CST 6:16 PM CST
Nautical Twilight 6:33 AM CST 6:45 PM CST
Astronomical Twilight 6:04 AM CST 7:14 PM CST
Moon 11:52 AM CST (1/7) No Moon Set
Length of Visible Light 11h 13m
Length of Day
10h 21m
Waxing Crescent, 46% of the Moon is Illuminated
Jan 7
Waxing Crescent
Jan 7
First Quarter
Jan 15
Full
Jan 23
Last Quarter
Jan 30
New

Hourly Weather History & Observations

Time (CST) Temp. Windchill Dew Point Humidity Pressure Visibility Wind Dir Wind Speed Gust Speed Precip Events Conditions
12:58 AM 22.6 °F - 10.8 °F 60% 30.63 in 10.0 mi South 2.3 mph - N/A   Clear
1:58 AM 21.2 °F - 10.8 °F 64% 30.61 in 10.0 mi Calm Calm - N/A   Clear
2:58 AM 21.2 °F - 12.6 °F 69% 30.62 in 10.0 mi SW 2.3 mph - N/A   Clear
3:58 AM 19.8 °F 13.2 °F 12.7 °F 74% 30.62 in 10.0 mi NW 4.6 mph - N/A   Clear
4:58 AM 19.9 °F - 12.6 °F 73% 30.61 in 10.0 mi WNW 1.2 mph - N/A   Partly Cloudy
5:58 AM 19.6 °F 14.5 °F 12.0 °F 72% 30.61 in 10.0 mi NNW 3.5 mph - N/A   Scattered Clouds
6:58 AM 17.2 °F 10.2 °F 10.9 °F 76% 30.60 in 10.0 mi NW 4.6 mph - N/A   Clear
7:58 AM 19.2 °F 14.1 °F 12.2 °F 74% 30.61 in 10.0 mi NNW 3.5 mph - N/A   Clear
8:58 AM 27.1 °F - 14.0 °F 58% 30.63 in 10.0 mi ESE 2.3 mph - N/A   Clear
9:58 AM 31.6 °F 27.0 °F 9.7 °F 40% 30.63 in 10.0 mi SE 4.6 mph - N/A   Clear
10:58 AM 36.9 °F 31.4 °F 3.4 °F 25% 30.59 in 10.0 mi SSE 6.9 mph - N/A   Clear
11:58 AM 40.6 °F 35.4 °F 3.0 °F 21% 30.55 in 10.0 mi South 8.1 mph - N/A   Clear
12:58 PM 42.3 °F 36.3 °F 1.0 °F 18% 30.50 in 10.0 mi South 10.4 mph - N/A   Overcast
1:58 PM 43.3 °F 37.7 °F 2.8 °F 19% 30.48 in 10.0 mi South 10.4 mph - N/A   Overcast
2:58 PM 43.5 °F 38.3 °F 4.1 °F 20% 30.45 in 10.0 mi South 9.2 mph - N/A   Overcast
3:58 PM 43.2 °F 37.4 °F 4.8 °F 21% 30.44 in 10.0 mi South 10.4 mph - N/A   Overcast
4:58 PM 42.6 °F 36.8 °F 5.4 °F 22% 30.43 in 10.0 mi South 10.4 mph - N/A   Overcast
5:58 PM 41.9 °F 35.9 °F 6.8 °F 24% 30.41 in 10.0 mi South 10.4 mph - N/A   Overcast
6:58 PM 41.5 °F 37.1 °F 8.4 °F 26% 30.42 in 10.0 mi South 6.9 mph - N/A   Overcast
7:58 PM 41.0 °F 38.0 °F 9.9 °F 28% 30.42 in 10.0 mi South 4.6 mph - N/A   Overcast
8:13 PM 41.0 °F 38.0 °F 10.4 °F 29% 30.39 in 10.0 mi SSE 4.6 mph - N/A   Overcast
8:53 PM 41.0 °F 37.1 °F 10.4 °F 29% 30.38 in 10.0 mi South 5.8 mph - N/A   Mostly Cloudy
8:58 PM 41.2 °F 38.2 °F 10.6 °F 29% 30.39 in 10.0 mi South 4.6 mph - N/A   Mostly Cloudy
9:03 PM 41.0 °F 37.1 °F 12.2 °F 31% 30.37 in 10.0 mi South 5.8 mph - N/A   Mostly Cloudy
9:58 PM 41.2 °F - 14.0 °F 33% 30.40 in 10.0 mi Calm Calm - N/A   Overcast
10:08 PM 41.0 °F - 15.8 °F 36% 30.38 in 10.0 mi South 2.3 mph - N/A   Overcast
10:43 PM 41.0 °F - 19.4 °F 42% 30.36 in 10.0 mi SE 2.3 mph - N/A   Overcast
10:48 PM 41.0 °F 39.0 °F 19.4 °F 42% 30.35 in 10.0 mi SE 3.5 mph - N/A   Overcast
10:58 PM 40.8 °F 38.8 °F 19.6 °F 43% 30.36 in 10.0 mi SE 3.5 mph - N/A   Overcast
11:08 PM 41.0 °F 39.0 °F 21.2 °F 45% 30.33 in 10.0 mi SE 3.5 mph - N/A   Overcast
11:58 PM 41.4 °F - 22.3 °F 47% 30.35 in 10.0 mi Calm Calm - N/A   Overcast